Flag for Norway Weather past 2 weeks in Trondheim, Norway

Now
59 °F

Passing clouds.


Feels Like: 58 °F
Forecast: 44 / 51 °F
Wind: 8 mph from Southeast

Location: Trondheim / Vaernes

Current Time: May 24, 2015 at 4:24:28 PM

Latest Report: May 24, 2015 at 3:50 PM


Visibility: N/A

Pressure: 29.68 "Hg

Humidity: 39%

Dew point: 34 °F

Location of TrondheimLocation

Historic Weather in Trondheim — Graph

°F

Trondheim temperature yesterday

Maximum temperature yesterday: 46 °F (at 11:50 AM)
Minimum temperature yesterday: 39 °F (at 3:50 AM)
Average temperature yesterday: 42 °F

Past Weeks' High & Low Weather Summary

 TemperatureHumidityPressure
High59 °F (May 12, 2:20 PM)100% (May 18, 4:50 AM)30.09 "Hg (May 18, 4:50 AM)
Low36 °F (May 16, 1:50 AM)33% (May 18, 4:20 PM)29.53 "Hg (May 12, 2:20 PM)
Average47 °F68%29.78 "Hg
* Reported May 9 2:20 PM — May 24 2:50 PM, Trondheim, Weather by CustomWeather, © 2015

Note: Actual official high and low records may vary slightly from our data, if they occured in-between our weather recording intervals... More about our weather records

Advertising

Trondheim weather history for previous 24 hours

 ConditionsComfort  
Time TempWeatherWind HumidityBarometerVisibility
2:50 PM
Sun, May 24
57 °FPassing clouds.9 mph36%29.71 "HgN/A
2:20 PM55 °FPassing clouds.7 mph41%29.74 "HgN/A
1:50 PM54 °FPassing clouds.8 mph44%29.74 "HgN/A
1:20 PM54 °FPassing clouds.8 mph54%29.77 "HgN/A
12:50 PM52 °FPassing clouds.9 mph50%29.77 "HgN/A
12:20 PM48 °FPassing clouds.12 mph62%29.80 "HgN/A
11:50 AM48 °FSunny.10 mph62%29.80 "Hg10 mi
11:20 AM46 °FScattered clouds.12 mph71%29.83 "HgN/A
10:50 AM46 °FScattered clouds.9 mph66%29.86 "HgN/A
10:20 AM45 °FPartly sunny.9 mph71%29.86 "HgN/A
9:50 AM45 °FPartly sunny.9 mph71%29.86 "HgN/A
9:20 AM43 °FBroken clouds.7 mph76%29.89 "HgN/A
8:50 AM43 °FPartly sunny.5 mph76%29.89 "HgN/A
8:20 AM43 °FPartly sunny.5 mph76%29.89 "HgN/A
7:50 AM41 °FPartly sunny.3 mph81%29.89 "HgN/A
7:20 AM41 °FPartly sunny.2 mph81%29.89 "HgN/A
6:50 AM41 °FPartly sunny.1 mph81%29.92 "HgN/A
6:20 AM41 °FPartly sunny.3 mph81%29.92 "HgN/A
5:50 AM41 °FBroken clouds.6 mph76%29.92 "HgN/A
5:20 AM41 °FBroken clouds.9 mph81%29.92 "HgN/A
4:50 AM41 °FPartly sunny.7 mph76%29.92 "HgN/A
3:50 AM41 °FPartly cloudy.14 mph76%29.95 "HgN/A
2:50 AM39 °FPassing clouds.13 mph81%29.95 "HgN/A
1:50 AM39 °FPassing clouds.13 mph81%29.95 "HgN/A
12:50 AM41 °FPassing clouds.20 mph76%29.95 "HgN/A
11:50 PM
Sat, May 23
41 °FPartly cloudy.18 mph76%29.95 "HgN/A
11:20 PM41 °FBroken clouds.21 mph81%29.95 "HgN/A
10:50 PM41 °FScattered showers. Broken clouds.20 mph81%29.98 "HgN/A
10:20 PM41 °FScattered showers. Broken clouds.23 mph81%29.98 "HgN/A
9:50 PM41 °FScattered showers. Broken clouds.25 mph81%29.95 "HgN/A
9:20 PM41 °FScattered showers. Broken clouds.25 mph81%29.95 "HgN/A
8:50 PM41 °FScattered showers. Broken clouds.28 mph81%29.95 "HgN/A
8:20 PM39 °FScattered showers. Partly sunny.20 mph93%29.95 "HgN/A
7:50 PM41 °FLight rain. Broken clouds.26 mph87%29.95 "HgN/A
7:20 PM41 °FLight rain. Cloudy.28 mph87%29.95 "HgN/A
6:50 PM41 °FRain showers. Broken clouds.25 mph87%29.95 "HgN/A
6:20 PM41 °FScattered showers. Broken clouds.23 mph87%29.95 "HgN/A
5:50 PM43 °FRain showers. Broken clouds.29 mph81%29.95 "HgN/A
5:20 PM41 °FRain showers. Broken clouds.29 mph81%29.92 "HgN/A
4:50 PM43 °FScattered showers. Broken clouds.25 mph76%29.92 "HgN/A
4:20 PM45 °FRain. Partly sunny.30 mph71%29.92 "HgN/A
Weather by CustomWeather, © 2015

See weather overviewHow to use our weather pages